Погода в Савине

Россия / Новгородская область     58°32′41″N   31°26′45″E
темп.,
°C
ветер,
м/с
пор.,
м/с
влажн.,
%
обл.,
%
осадки,
мм/ч
давл.,
гПа
погр.,
м
23 апреля, пт
пт2300:00+7юз3890100 1.2 1007436
03:00+5ююз2685100 1.2 1007252
06:00+5ю3790100 0.1 1007335
09:00+6ююз5874100 0.1 1008757
12:00+7ююз5955100 0.0 10081463
15:00+8ююз51052100 0.1 10081697
18:00+8юз58495 0.0 10081580
21:00+5ююз49705 0.0 1009326
24 апреля, сб
сб2400:00+3ю388284 0.0 1009197
03:00+1ююз25905 0.0 1008136
06:000ююз249629 0.0 1008115
09:00+2юз3688100 0.1 1008508
12:00+4зюз347098 0.1 1008974
15:00+5зюз455481 0.1 10081384
18:00+5зюз345326 0.0 10081227
21:00+2ю237113 0.0 100853
25 апреля, вс
вс2500:00+1зюз38945 0.0 1008205
03:00−1зюз27965 0.0 1008178
06:00−1зюз269512 0.0 1007227
09:00+2юз347356 0.0 1007770
12:00+3юз3467100 0.1 10071028
15:00+4зюз236099 0.1 10071119
18:00+5зсз2455100 0.0 10071113
21:00+2юз2275100 0.0 100721
26 апреля, пн
пн2600:00+1зюз2281100 0.0 100738
03:000з2284100 0.0 100724
06:000з2493100 0.0 1007105
09:00+4зюз3469100 0.0 1007661
12:00+6юз4557100 0.1 10071395
15:00+7юз354997 0.1 10071642
18:00+6юз455687 0.1 10071182
21:00+3юз3776100 0.3 1007216
27 апреля, вт
вт2700:00+2юз3880100 0.0 1007262
03:00+1юз3785100 0.0 1007213
06:00+1юз3687100 0.0 1006270
09:00+3юз357985 0.0 1006528
12:00+4з4688100 0.3 1007686
15:00+3зсз2697100 0.9 1007444
18:00+3сз2597100 0.5 1008344
21:00+3зсз2598100 0.7 1009350